Location: Marse
(42.1502°N, 110.9866°W)
Time: 09:11:39
(UTC+00:00)

Oscar 19 - Pass Details

Date: 03 July 2022
Orbit: 773 x 790 km, 98.8° (Epoch: 13 August)

Event Time Altitude Azimuth Distance (km) Brightness Sun altitude
Rises 09:24:40 0° 37° (NE) 3,257 15.4 -19.6°
Reaches altitude 10° 09:29:10 10° 75° (ENE) 2,322 13.7 -19.2°
Maximum altitude 09:30:23 11° 88° (E) 2,266 13.4 -19.1°
Drops below altitude 10° 09:31:35 10° 102° (ESE) 2,318 13.3 -18.9°
Sets 09:36:02 0° 139° (SE) 3,239 13.7 -18.5°
